• MPC Preparation (Info)

  • MPEC 2024-G68 : 2024 FM5

    The following Minor Planet Electronic Circular may be linked-to from your own Web pages, but must not otherwise be redistributed electronically.

    A form allowing access to any MPEC is at the bottom of this page.


    Read MPEC 2024-G67 Read MPEC 2024-G69


    M.P.E.C. 2024-G68                                 Issued 2024 April 5, 13:37 UT
    
         The Minor Planet Electronic Circulars contain information on unusual
             minor planets, routine data on comets and natural satellites,
             and occasional editorial announcements.  They are published
        on behalf of Division F of the International Astronomical Union by the
              Minor Planet Center, Smithsonian Astrophysical Observatory,
                              Cambridge, MA 02138, U.S.A.
    			  
                 Prepared using the Tamkin Foundation Computer Network
    
                                  MPC@CFA.HARVARD.EDU
                URL https://www.minorplanetcenter.net/    ISSN 1523-6714
    
                                    2024 FM5                                 
    
    
    Observations:
         K24F05M* C2024 03 31.30408410 26 03.381-12 39 19.72         22.00wXEG068F51
         K24F05M  C2024 03 31.32904910 26 05.223-12 38 22.08         21.92wXEG068F51
         K24F05M  C2024 03 31.34150810 26 06.156-12 37 53.51         21.56wXEG068F51
         K24F05M |C2024 04 01.01704010 27 05.130-12 11 40.40         22.1 GVEG068807
         K24F05M |C2024 04 01.02804010 27 06.010-12 11 14.90         21.6 GVEG068807
         K24F05M |C2024 04 01.03904610 27 06.860-12 10 50.00         21.4 GVEG068807
         K24F05M |C2024 04 02.11492910 28 41.490-11 29 42.30         22.1 GVEG068807
         K24F05M |C2024 04 02.12960010 28 42.690-11 29 07.80         22.1 GVEG068807
         K24F05M |C2024 04 02.13694010 28 43.270-11 28 51.00         22.1 GVEG068807
         K24F05M KC2024 04 04.18225 10 31 54.74 -10 11 15.9          21.5 RVEG068691
         K24F05M KC2024 04 04.19402 10 31 55.81 -10 10 48.9                VEG068691
         K24F05M KC2024 04 04.20578 10 31 56.76 -10 10 22.6          21.6 RVEG068691
         K24F05M KC2024 04 05.12508 10 33 27.19 -09 35 27.1          21.8 RVEG068291
         K24F05M KC2024 04 05.13276 10 33 27.88 -09 35 09.6          21.5 RVEG068291
         K24F05M KC2024 04 05.14047 10 33 28.57 -09 34 52.1          21.8 RVEG068291
    
    Observer details:
    291 LPL/Spacewatch II.  Observer T. H. Bressi.  1.8-m f/2.7 reflector + CCD.
    691 Steward Observatory, Kitt Peak-Spacewatch.  Observer T. H. Bressi.  0.9-m
        f/3 reflector + CCD.
    807 Cerro Tololo Observatory, La Serena.  Observers T. Linder, R. Holmes.
        0.61-m f/6.8 Ritchey-Chretien + CCD.
    F51 Pan-STARRS 1, Haleakala.  Observers J. Herman, T. Lowe, P. Minguez, A.
        Schultz, I. Smith.  Measurers K. Chambers, T. de Boer, J. Fairlamb, H.
        Gao, M. Huber, C.-C. Lin, E. Magnier, Y. Ramanjooloo, R. Wainscoat, R.
        Weryk.  1.8-m Ritchey-Chretien + CCD.
    
    Orbital elements:
    2024 FM5                                                 Earth MOID = 0.2778 AU
    Epoch 2024 Mar. 31.0 TT = JDT 2460400.5                 MPC                     
    M   0.71410              (2000.0)            P               Q                  
    n   0.44042103     Peri.  335.12785     -0.99421387     +0.03642050             
    a   1.7108976      Node   207.54092     -0.01442668     -0.97751691             
    e   0.2594494      Incl.   12.62420     -0.10644552     -0.20768785             
    P   2.24           H   22.86          G   0.15           U   8                  
    Residuals in seconds of arc
    240331 F51  0.1-  0.4-    240401 807  0.1+  0.1-    240404 691  1.0+  0.2+
    240331 F51  0.0   0.2+    240402 807  0.2-  0.4-    240404 691  0.1+  0.4-
    240331 F51  0.2+  0.3+    240402 807  0.2+  0.4+    240405 291  0.1+  0.2-
    240401 807  0.2-  0.3-    240402 807  0.1+  0.3+    240405 291  0.1+  0.0
    240401 807  0.1+  0.1+    240404 691  0.1+  0.0     240405 291  0.0   0.0
    
    Ephemeris:
    2024 FM5                 a,e,i = 1.71, 0.26, 13                  q = 1.2670
    Date    TT    R. A. (2000) Decl.     Delta      r    Elong.  Phase     V
    2024 03 06    10 06 30.0 -25 55 18   0.3333  1.2799   145.2    26.3    22.2
    ...
    2024 03 21    10 14 11.2 -18 57 39   0.3099  1.2687   147.6    24.9    22.0
    ...
    2024 03 29    10 22 55.1 -14 06 44   0.3081  1.2670   146.6    25.7    22.0
    ...
    2024 04 04    10 31 36.9 -10 17 55   0.3121  1.2678   144.7    27.1    22.1
    2024 04 05    10 33 13.9 -09 39 55   0.3132  1.2681   144.3    27.4    22.1
    2024 04 06    10 34 53.8 -09 02 07   0.3144  1.2684   143.9    27.7    22.1
    ...
    2024 04 12    10 45 48.0 -05 22 34   0.3247  1.2714   141.1    29.7    22.2
    ...
    2024 04 20    11 02 26.2 -01 02 12   0.3454  1.2781   136.7    32.6    22.5
    ...
    2024 05 05    11 37 35.5 +04 45 46   0.4040  1.2982   128.3    37.6    23.0
    
    A. U. Tomatic                (C) Copyright 2024 MPC           M.P.E.C. 2024-G68
    


    Read MPEC 2024-G67 Read MPEC 2024-G69


    MPEC number:

    Enter an MPEC number in one of the following forms:

    • 1997-B01 (the full form)
    • J97B01 (the packed version of the full form)
    • B01 (the abbreviated form)